GFSSE_250_rhum_213.txt.gz
RH
77 82 81 78 75 68 66 60 54 47 48 54 59 56 46 42 36 42 34 21 20 20 19 21 21 20 20 18 16 15 16 16 16 17 18 15 14 12 12 10 8 8 9
89 97 88 84 78 59 63 61 64 59 57 65 63 54 50 47 46 39 36 22 23 22 23 22 24 25 22 22 20 19 18 18 17 16 15 15 14 14 15 13 13 10 8
92 87 72 68 60 53 50 64 64 61 61 58 57 60 56 48 44 39 30 22 24 27 26 26 25 25 25 25 23 23 22 20 22 19 17 14 13 13 13 16 16 15 13
91 94 82 70 66 59 61 62 60 64 79 94 90 78 50 45 39 37 25 25 25 28 29 30 30 30 25 26 26 24 23 23 22 20 19 14 9 10 12 11 17 17 20
81 100 96 84 80 77 70 64 65 78 92 92 72 59 44 40 36 32 28 26 28 29 32 30 29 28 30 26 31 31 28 26 25 22 19 15 9 12 13 11 10 17 37
63 66 81 85 83 75 79 79 82 90 82 66 56 46 41 38 32 29 28 30 32 33 28 17 17 18 30 32 35 38 35 34 29 27 24 20 10 9 12 12 12 12 15
53 62 70 81 82 90 89 78 59 60 57 52 47 51 48 30 28 28 32 34 34 29 15 15 15 15 16 23 30 39 38 39 37 34 30 27 14 9 10 12 17 12 11
36 40 48 48 53 50 46 51 43 50 49 54 64 47 29 29 32 38 36 31 22 15 14 14 14 15 16 16 19 33 34 40 44 42 36 32 20 11 10 10 13 17 24
44 41 40 39 37 33 31 33 33 36 49 48 34 36 37 37 34 26 17 16 15 14 14 14 14 13 14 16 17 19 26 41 46 42 39 36 22 13 12 11 12 14 20
46 46 44 45 43 41 42 43 44 42 41 43 38 27 20 21 20 15 14 13 13 13 13 13 13 13 14 16 16 18 24 30 35 37 34 33 18 13 13 13 12 14 18
52 49 46 47 47 46 44 47 44 38 30 22 16 14 14 14 13 13 13 13 12 13 12 13 13 14 15 17 17 21 23 24 27 30 33 29 14 14 13 14 17 15 18
38 40 35 33 32 29 34 32 24 18 13 12 12 12 12 12 12 11 12 11 12 11 11 12 12 13 16 20 21 24 26 28 28 30 31 17 15 15 16 19 21 22 20
20 21 21 15 14 14 14 13 12 11 11 11 11 11 11 10 10 11 10 11 11 11 12 13 13 16 20 20 20 20 22 24 23 21 17 17 17 17 18 22 28 26 28
15 15 14 14 13 13 12 12 12 11 11 11 11 10 11 10 10 10 10 11 13 13 13 14 14 14 14 15 15 16 18 21 20 19 18 18 17 23 28 27 27 23 20
15 14 14 14 13 14 14 13 12 12 11 10 10 10 10 9 10 10 10 13 15 16 16 15 13 12 14 16 18 18 20 20 21 20 20 18 24 26 26 25 23 18 14
16 15 15 15 14 14 13 13 13 12 11 10 10 10 10 11 11 11 13 16 16 17 15 13 12 15 15 14 14 14 15 19 20 22 20 26 28 26 23 21 17 9 7
16 15 16 15 15 14 14 14 13 12 11 10 11 12 11 12 11 14 15 16 19 17 15 13 15 15 12 12 14 15 19 20 21 24 30 32 28 22 20 18 7 4 4
17 16 15 15 14 14 14 13 12 11 10 11 11 10 10 11 13 17 15 17 18 15 14 15 15 13 12 13 14 19 19 22 27 34 35 30 25 20 20 12 4 4 3
17 16 16 14 15 14 14 12 11 11 12 12 10 12 13 15 20 21 20 20 16 15 15 16 16 13 14 17 18 20 23 28 34 39 34 28 25 19 21 11 4 4 4
17 18 17 16 17 15 14 12 13 16 15 13 14 16 17 20 22 23 25 18 16 18 17 17 16 14 15 18 20 23 28 35 39 37 32 28 26 22 23 13 5 4 5
20 20 19 22 21 17 15 13 13 15 17 21 19 16 19 23 24 26 20 19 21 21 21 20 19 16 17 18 25 30 34 35 35 34 33 30 29 27 24 16 6 5 6
22 24 26 25 20 16 14 14 16 23 26 25 24 24 23 27 26 20 20 22 28 27 28 26 22 20 19 22 28 34 34 33 33 32 34 30 31 30 26 22 9 8 7
27 27 26 23 20 18 22 25 27 27 29 29 30 26 24 20 19 20 24 32 35 36 34 32 29 30 29 31 31 32 35 36 35 34 34 30 32 31 31 27 15 10 10
38 37 36 32 28 29 29 30 32 33 32 35 30 25 23 22 23 26 34 41 46 43 42 40 40 37 35 36 38 39 37 38 39 39 36 32 35 32 31 32 25 12 12
53 48 43 34 34 33 37 40 34 31 30 31 33 35 35 35 36 40 42 49 52 58 50 48 49 50 49 47 41 37 36 36 37 40 42 41 39 37 36 34 31 21 15
60 52 46 40 40 44 42 35 32 32 37 42 46 47 55 58 58 60 67 72 66 61 62 62 59 51 47 47 46 46 46 41 40 44 46 45 39 41 40 37 37 30 18

GFSSE_250_rhum_219.txt.gz
RH
64 94 98 92 86 79 80 81 74 74 76 61 55 52 53 46 47 58 56 54 54 51 39 29 23 21 20 20 21 22 22 20 20 18 18 16 15 14 12 12 12 10 10
71 69 77 81 80 85 86 80 72 72 57 46 44 45 44 44 48 48 48 50 58 50 36 29 26 18 22 24 24 24 24 22 18 19 18 18 18 18 15 14 13 12 12
67 59 61 58 77 77 74 75 71 72 61 56 52 50 50 51 49 49 50 47 44 44 36 25 19 22 25 26 26 25 20 17 12 13 14 17 17 19 21 20 18 16 14
64 59 58 68 77 69 73 78 80 71 64 63 56 52 50 49 48 45 38 37 38 31 22 21 25 28 27 17 13 13 12 12 11 11 11 11 12 15 19 21 22 21 20
70 65 62 62 59 58 54 64 70 66 65 52 45 47 50 48 42 33 25 25 24 24 27 28 21 13 12 11 12 12 12 11 12 12 12 12 12 12 11 16 22 22 22
54 55 58 51 38 34 34 32 30 31 36 38 36 31 28 24 25 23 27 30 29 30 27 14 11 10 11 12 11 11 12 11 10 11 11 12 12 11 12 12 12 14 19
45 39 45 36 31 32 33 31 31 31 31 33 33 32 32 33 34 36 37 36 29 18 13 11 10 10 10 9 9 9 9 9 9 10 10 11 11 11 12 12 13 14 14
45 42 41 43 40 40 39 37 37 37 39 38 37 36 37 40 40 36 27 19 14 11 10 10 9 9 8 8 8 8 8 8 9 10 11 11 11 11 12 13 13 14 15
44 46 45 41 41 41 42 42 42 42 40 39 38 36 36 32 25 15 13 12 11 10 9 8 8 8 7 7 7 7 8 9 10 11 12 11 12 14 15 18 19 16 17
56 48 45 45 48 51 52 49 47 45 43 39 27 17 15 13 13 12 12 12 11 10 9 8 7 7 7 7 7 7 8 9 11 12 12 13 14 15 14 15 20 20 21
61 56 58 57 58 51 43 44 38 33 30 21 14 14 13 13 13 13 12 11 10 9 8 8 7 7 7 8 8 8 9 11 12 14 13 13 12 14 16 17 17 18 22
74 68 64 58 48 39 39 29 18 16 15 14 14 14 15 14 13 12 11 10 9 8 8 8 7 7 8 8 8 9 11 12 13 13 13 13 15 16 17 18 20 21 18
68 57 48 44 27 25 23 17 15 15 14 14 14 14 14 13 12 11 10 9 8 8 7 7 7 8 8 8 9 11 13 13 12 12 13 15 16 16 16 16 17 19 21
42 33 26 20 19 18 16 15 15 14 14 15 15 14 13 12 11 10 9 8 8 8 7 9 9 11 10 10 11 13 13 12 12 14 15 15 14 14 17 17 18 19 24
24 21 19 17 17 16 16 15 15 15 15 15 14 13 12 12 11 9 8 8 7 7 9 12 11 12 12 12 14 13 12 12 14 14 14 13 14 15 17 19 21 24 24
19 18 18 18 18 17 17 16 16 16 16 15 14 13 13 11 10 9 8 8 8 9 11 12 12 14 15 17 15 13 13 14 14 13 14 15 16 20 23 26 32 36 35
20 20 20 20 20 19 19 19 18 17 17 17 14 14 12 11 10 10 9 9 10 10 12 13 16 21 22 18 16 16 15 14 14 14 17 20 25 34 37 36 33 31 28
24 24 23 24 24 22 22 22 20 19 18 17 16 15 13 12 11 11 12 13 12 12 14 16 19 24 25 23 22 19 17 15 15 18 26 34 37 39 33 31 32 28 25
29 27 26 26 26 24 24 22 20 20 19 17 17 16 14 14 14 16 16 16 16 16 18 18 20 25 31 34 28 25 22 21 22 29 33 34 37 33 31 30 29 27 24
32 31 31 31 29 28 25 22 20 19 18 19 19 16 20 21 21 19 18 21 22 22 20 20 26 34 40 41 34 32 32 32 31 31 32 34 32 31 30 30 28 27 23
32 32 31 30 29 25 24 21 21 20 23 27 25 28 28 28 27 22 22 24 28 27 24 26 34 42 45 42 36 37 39 40 41 39 37 37 36 33 30 28 29 28 24
30 30 28 27 26 25 22 25 27 31 36 39 38 36 36 40 31 29 28 30 33 36 32 39 41 39 42 44 39 41 38 39 37 38 38 37 36 34 32 30 28 27 26
32 30 28 27 27 26 32 35 39 45 48 48 46 44 43 40 35 38 39 43 46 45 44 44 44 45 45 47 42 37 34 32 30 31 33 34 36 38 36 33 30 28 27
32 31 30 35 46 43 44 48 51 59 61 52 53 52 52 44 41 48 49 46 45 42 37 34 31 34 32 30 30 31 30 30 31 31 29 29 30 29 28 30 30 27 27
43 45 52 56 56 60 62 66 73 70 60 57 58 56 46 45 45 52 50 50 42 37 35 33 36 31 30 29 29 28 29 30 33 34 37 36 36 35 34 32 30 27 25
56 61 68 71 71 77 77 81 74 66 64 63 59 48 46 47 55 54 47 42 40 39 37 37 36 36 34 34 35 36 38 40 41 49 52 46 44 42 41 38 36 32 30

GFSSE_250_rhum_222.txt.gz
RH
63 61 64 77 87 79 73 70 69 72 67 62 53 42 34 33 30 31 33 32 33 34 33 28 23 24 24 20 18 17 20 22 22 21 20 19 16 15 13 11 10 10 10
68 64 60 57 73 76 77 83 84 83 80 73 62 47 41 38 38 39 39 42 41 35 29 24 22 23 23 19 18 21 21 19 14 13 14 16 17 17 17 15 13 10 9
71 64 56 55 56 59 59 59 60 66 68 63 60 56 56 56 48 45 46 44 40 36 27 24 23 22 21 23 22 14 11 10 10 11 11 11 11 11 13 16 17 17 14
77 66 60 56 54 54 48 43 42 45 57 63 69 61 57 52 41 39 37 29 25 23 20 22 24 26 26 18 10 9 8 8 8 9 10 10 10 10 11 12 12 13 15
78 66 68 61 60 57 54 49 42 40 38 42 44 50 34 30 27 29 29 28 29 29 29 29 27 22 14 10 9 8 8 8 7 7 8 8 8 9 10 11 12 11 11
85 64 66 57 48 48 49 40 29 30 32 31 28 27 29 32 32 32 31 30 29 29 28 21 14 12 10 10 9 8 8 7 7 7 8 7 7 8 9 9 10 11 11
89 65 62 55 45 41 38 33 35 34 34 34 33 34 35 36 33 32 29 29 26 18 13 12 12 11 10 9 8 8 7 7 7 7 7 7 7 8 9 10 10 10 10
90 68 59 58 45 41 39 42 40 39 39 39 38 37 35 33 33 26 18 15 13 13 12 12 11 10 9 9 8 7 7 7 7 8 8 8 8 8 9 10 10 11 11
88 90 78 51 45 44 45 42 43 44 44 41 40 37 36 34 22 14 14 13 13 13 12 12 10 10 9 9 8 8 8 7 7 8 8 9 9 10 11 12 12 13 13
94 98 94 78 66 50 45 48 49 50 41 39 35 30 26 21 14 14 14 14 13 12 11 11 10 10 9 8 8 7 7 7 7 7 8 9 10 11 13 14 14 14 13
93 89 81 73 67 63 60 60 57 45 35 34 23 17 15 14 15 15 14 13 12 11 11 10 10 10 8 8 7 7 7 7 8 8 9 10 12 13 12 12 13 14 14
97 95 90 82 74 73 66 54 45 30 25 22 16 15 14 15 15 15 13 12 11 11 10 9 8 7 7 7 6 7 7 9 9 10 10 12 11 11 12 14 16 16 16
85 80 77 74 71 62 50 37 26 19 17 16 15 15 16 16 16 14 13 11 10 10 9 9 8 7 7 8 7 8 8 8 10 11 12 10 11 13 14 16 16 15 15
70 65 61 60 52 39 30 22 18 17 16 16 16 16 16 16 15 14 13 11 11 9 8 8 7 7 8 8 8 8 9 11 13 11 11 12 13 15 13 14 15 15 16
58 52 42 38 35 24 19 18 16 16 17 17 17 17 16 15 14 13 12 10 9 9 8 8 8 8 9 10 11 13 14 14 12 12 13 14 14 13 14 15 16 19 21
39 33 27 27 20 19 18 18 18 18 18 18 18 18 17 16 15 12 10 10 9 10 9 8 8 10 12 15 18 19 17 16 16 15 14 13 13 14 17 19 23 30 35
25 23 22 21 22 22 23 22 22 22 20 20 19 18 17 16 15 12 11 11 12 11 11 10 10 13 16 17 19 24 23 21 19 17 15 15 17 21 26 29 35 31 31
24 23 23 23 25 27 27 26 24 23 22 21 20 19 18 16 15 13 17 18 15 14 12 13 14 18 18 20 24 34 32 30 28 27 26 26 28 27 33 34 30 29 28
26 26 24 25 27 27 28 27 26 24 23 22 20 18 17 16 18 20 26 24 20 18 17 16 20 22 21 27 34 37 36 34 38 39 37 33 32 33 31 32 33 32 31
30 28 29 31 33 33 31 28 26 24 24 22 20 19 19 22 26 31 32 30 30 24 24 24 26 27 27 28 32 37 37 39 38 37 36 35 36 37 36 36 34 34 32
36 36 38 36 34 31 28 27 26 24 24 23 24 27 28 30 32 37 35 38 35 31 31 31 35 36 36 35 37 39 41 40 36 33 32 32 31 31 32 32 30 29 28
36 35 35 32 30 29 28 27 26 26 26 31 37 43 40 41 41 40 37 45 40 41 40 43 44 44 42 38 35 33 30 27 28 30 29 30 29 28 27 26 26 26 26
36 34 32 30 29 28 29 30 29 30 36 47 56 52 54 45 50 44 49 46 42 45 45 45 44 36 33 34 32 28 29 30 28 28 30 30 31 31 31 30 29 27 28
36 33 31 32 35 36 35 34 35 42 54 63 62 63 60 56 55 55 50 40 40 53 50 47 38 36 34 34 32 31 30 31 32 33 30 31 37 39 38 36 34 32 31
36 36 36 35 34 34 36 42 48 63 68 64 68 76 68 56 57 63 51 41 44 51 52 41 36 36 34 33 35 37 36 39 43 48 49 45 39 36 39 36 35 38 39
36 38 37 35 34 36 42 51 64 69 73 77 84 81 66 62 63 68 77 62 64 58 43 39 39 42 45 46 43 43 44 44 46 47 46 53 58 54 52 48 46 42 40

GFSSE_250_rhum_225.txt.gz
RH
65 58 54 48 44 46 51 56 63 61 61 60 60 54 45 36 34 32 30 31 35 36 34 33 31 28 22 17 17 17 16 17 18 20 18 17 15 14 15 13 11 11 10
72 66 54 48 47 48 48 64 60 57 58 56 58 56 50 46 43 43 43 42 35 32 31 33 28 24 18 17 17 19 21 21 20 12 10 10 10 10 11 12 13 15 13
82 72 60 55 52 51 48 48 44 45 41 42 45 45 55 58 55 54 50 35 27 24 23 21 22 24 24 23 22 22 20 15 9 8 8 8 7 9 10 10 10 11 12
74 75 67 61 57 55 50 50 46 42 38 39 39 38 41 47 59 51 32 26 26 29 28 27 27 25 24 23 20 16 11 9 8 8 7 7 7 7 7 8 8 8 9
86 81 77 71 62 57 58 57 53 49 42 40 30 29 30 27 26 28 31 33 33 30 28 26 24 21 17 15 13 11 10 9 8 8 7 7 7 7 7 7 7 8 8
99 88 80 75 68 66 57 51 50 47 41 32 32 33 33 35 35 35 36 32 29 26 21 19 15 14 12 12 11 10 10 9 9 8 8 8 8 7 7 7 7 7 8
90 99 85 80 74 69 61 48 43 42 37 40 40 39 38 38 36 35 33 33 27 16 14 14 13 13 12 12 11 10 10 10 9 8 8 7 7 7 7 7 7 7 7
100 88 82 92 84 71 69 58 43 40 42 41 42 42 43 38 32 31 32 28 16 14 14 14 13 13 11 11 11 10 10 10 9 8 7 7 6 7 7 7 7 8 8
100 100 100 100 91 82 81 70 49 45 44 47 47 49 42 32 28 20 18 16 14 15 14 13 12 12 12 11 11 11 9 8 7 7 7 6 6 6 6 7 8 8 9
100 100 100 100 100 96 94 76 68 55 51 53 53 48 34 27 21 16 15 15 16 15 14 13 13 11 12 11 11 10 9 8 7 6 6 6 7 7 7 8 8 9 10
98 92 100 100 88 80 81 77 74 69 67 60 51 38 24 20 16 15 15 16 16 15 14 14 13 12 11 10 9 7 7 6 6 6 7 7 7 8 9 10 10 11 12
100 91 99 100 90 89 88 81 78 70 61 54 38 24 18 16 16 16 17 16 15 15 14 13 12 11 9 8 7 7 6 6 6 7 7 8 9 9 11 11 10 11 12
100 99 100 91 90 79 70 67 65 57 47 34 22 16 16 16 17 17 16 15 14 14 13 12 10 8 7 7 7 7 7 7 8 8 11 12 12 11 11 11 12 12 14
96 86 92 89 79 66 60 53 50 40 32 20 17 17 18 18 17 16 16 15 14 12 11 9 8 7 7 7 7 7 8 9 13 14 13 12 11 11 12 13 13 14 13
85 76 71 67 58 48 45 39 33 28 18 18 19 20 19 18 17 17 17 15 13 12 10 9 10 9 9 10 10 10 13 15 15 15 16 16 15 14 14 14 14 15 16
63 61 62 56 51 43 33 26 24 20 20 21 21 21 19 19 18 17 16 15 15 13 12 14 13 12 13 13 15 15 16 18 19 20 22 18 17 17 18 20 22 26 29
47 46 41 39 34 30 25 23 22 22 23 22 22 20 20 20 20 19 17 17 15 16 19 19 16 18 16 18 19 21 21 25 26 32 28 26 26 25 27 31 34 32 31
30 29 28 25 24 24 24 25 23 22 23 23 22 22 22 22 21 20 20 18 20 23 24 21 20 21 21 22 24 26 27 34 34 35 35 30 32 33 34 34 34 32 32
34 31 28 26 26 26 26 25 24 27 26 24 23 24 23 23 23 23 20 21 27 27 26 22 27 24 27 27 30 32 35 35 38 38 37 34 33 32 32 34 34 33 33
37 36 31 29 30 30 31 32 30 28 26 25 24 25 25 26 26 26 25 29 33 31 30 27 34 28 34 40 38 40 41 41 42 38 35 31 30 29 28 29 30 28 28
38 39 37 36 34 33 34 31 29 27 27 26 26 27 28 30 30 29 33 34 36 36 33 37 38 32 36 41 42 34 34 32 30 31 30 29 28 28 29 28 29 28 26
43 42 38 36 35 36 34 32 31 30 28 28 28 29 32 35 34 38 38 36 40 40 36 40 37 33 40 45 38 34 32 31 30 30 31 30 31 30 30 29 29 29 24
43 44 42 38 38 37 36 34 32 30 30 30 30 31 37 37 38 40 47 45 48 43 43 41 35 37 49 45 38 33 34 32 29 31 33 35 35 36 34 31 33 32 26
44 45 42 40 38 37 35 33 32 32 30 30 30 34 35 37 42 52 55 55 52 48 53 47 43 53 53 44 36 36 34 33 36 38 37 40 42 44 40 42 41 39 35
47 40 37 37 36 35 34 34 32 31 30 33 34 33 34 38 47 54 55 59 56 52 58 58 55 62 50 38 35 39 42 44 45 47 50 49 49 40 40 39 36 40 38
48 44 41 38 36 35 36 34 34 34 35 35 33 32 38 45 48 54 63 62 51 52 54 60 67 52 44 37 39 40 40 46 54 54 56 61 61 56 44 39 39 41 39